Hourly Data Report for October 02, 2017

All times are specified in Local Standard Time (LST). Add 1 hour to adjust for Daylight Saving Time where and when it is observed.

FORT NELSON A
BRITISH COLUMBIA

58°50'11.000" N
122°35'49.000" W
381.90 m
1192946
71945
YYE

Download Data

Hourly Data (October 2017)
Hourly Data Report for October 2, 2017
Temp Definition
°C
Dew Point Temp Definition
°C
Rel Hum Definition
%
Wind Dir Definition
10's deg

Wind Spd Definition
km/h
Visibility Definition
km
Stn Press Definition
kPa
Hmdx Definition


Wind Chill Definition


Weather Definition


TIME
00:00 Legend Double Dagger -2.5 -3.8 91 36 1 24.1 98.66   -3 LegendNANA
01:00 Legend Double Dagger -2.5 -3.0 96 36 2 24.1 98.67   -3 Clear
02:00 Legend Double Dagger -3.7 -4.6 94 36 2 24.1 98.70   -5 LegendNANA
03:00 Legend Double Dagger -4.0 -5.0 92 19 4 24.1 98.73   -6 LegendNANA
04:00 Legend Double Dagger -4.2 -5.2 93 17 3 0.8 98.78   -5 Freezing Fog
05:00 Legend Double Dagger -3.2 -3.6 97 17 5 32.2 98.77   -5 LegendNANA
06:00 Legend Double Dagger -3.2 -3.6 97 19 8 48.3 98.76   -6 LegendNANA
07:00 Legend Double Dagger -3.3 -3.6 97 15 8 80.5 98.75   -7 Mainly Clear
08:00 Legend Double Dagger -2.0 -3.0 93 18 10 80.5 98.72   -6 LegendNANA
09:00 Legend Double Dagger 0.0 -2.2 86 17 9 80.5 98.70   -3 LegendNANA
10:00 Legend Double Dagger 3.2 -2.2 68 19 10 80.5 98.64     Mainly Clear
11:00 Legend Double Dagger 5.8 -2.6 55 18 7 80.5 98.59     LegendNANA
12:00 Legend Double Dagger 8.4 -2.4 47 14 10 80.5 98.50     LegendNANA
13:00 Legend Double Dagger 10.6 -3.8 36 16 10 48.3 98.39     Mainly Clear
14:00 Legend Double Dagger 11.4 -4.7 32 16 14 48.3 98.26     LegendNANA
15:00 Legend Double Dagger 11.9 -5.0 30 18 11 48.3 98.15     LegendNANA
16:00 Legend Double Dagger 12.1 -5.6 28 16 10 48.3 98.06     Mostly Cloudy
17:00 Legend Double Dagger 11.7 -6.4 28 16 5 48.3 97.99     LegendNANA
18:00 Legend Double Dagger 6.3 -2.4 54 36 2 24.1 97.93     LegendNANA
19:00 Legend Double Dagger 2.8 -2.3 69 16 5 24.1 97.82     Mainly Clear
20:00 Legend Double Dagger 0.6 -3.7 73 24 3 24.1 97.79     LegendNANA
21:00 Legend Double Dagger -0.8 -3.9 79 36 3 24.1 97.73   -2 LegendNANA
22:00 Legend Double Dagger -1.4 -4.5 80 16 9 24.1 97.60   -5 Mainly Clear
23:00 Legend Double Dagger 2.7 -3.2 65 18 9 24.1 97.53     LegendNANA

Notes on Data Quality.

Legend

  • E = Estimated
  • M = Missing
  • NA = Not Available
  • ‡ = Partner data that is not subject to review by the National Climate Archives
Date modified: